Change the Weather History Date:

Sunday, September 8, 2013

  Actual Average Record
Temperature  
Mean Temperature 76 °F -  
Max Temperature 84 °F 77 °F 93 °F (1997)
Min Temperature 68 °F 56 °F 48 °F (1996)
Cooling Degree Days 11    
Growing Degree Days 26 (Base 50)    
Moisture  
Dew Point 66 °F    
Average Humidity 73    
Maximum Humidity 88    
Minimum Humidity 51    
Precipitation  
Precipitation 0.00 in 0.11 in - ()
Sea Level Pressure  
Sea Level Pressure 30.11 in    
Wind  
Wind Speed 3 mph ()    
Max Wind Speed 8 mph    
Max Gust Speed -    
Visibility 6.2 miles    
Events Rain    
Averages and records for this station are not official NWS values.
T = Trace of Precipitation, MM = Missing Value Source: Averaged Metar Reports

Daily Weather History Graph

Daily Weather History Graph

Search for Another Location

Airport or City:

Trip Planner

Search our weather history database for the weather conditions in past years. The results will help you decide how hot, cold, wet, or windy it might be!

Date:

Astronomy

Sep. 08, 2013 Rise Set
Actual Time 6:46 AM CEST 7:38 PM CEST
Civil Twilight 6:17 AM CEST 8:07 PM CEST
Nautical Twilight 5:42 AM CEST 8:42 PM CEST
Astronomical Twilight 5:06 AM CEST 9:18 PM CEST
Moon 9:54 AM CEST (9/8) 8:54 PM CEST (9/8)
Length of Visible Light 13h 50m
Length of Day
12h 51m
Waxing Crescent, 9% of the Moon is Illuminated
Sep 8
Waxing Crescent
Sep 12
First Quarter
Sep 19
Full
Sep 27
Last Quarter
Oct 5
New

Hourly Weather History & Observations

Time (CEST) Temp. Heat Index Dew Point Humidity Pressure Visibility Wind Dir Wind Speed Gust Speed Precip Events Conditions
12:20 AM 73.4 °F - 64.4 °F 73% 30.09 in - Variable 2.3 mph - N/A   Clear
12:50 AM 71.6 °F - 64.4 °F 78% 30.09 in - Calm Calm - N/A   Clear
1:20 AM 71.6 °F - 64.4 °F 78% 30.09 in - East 2.3 mph - N/A   Clear
1:50 AM 71.6 °F - 64.4 °F 78% 30.09 in - Variable 1.2 mph - N/A   Clear
2:20 AM 71.6 °F - 64.4 °F 78% 30.09 in - Variable 1.2 mph - N/A   Clear
2:50 AM 69.8 °F - 64.4 °F 83% 30.09 in - ENE 1.2 mph - N/A   Clear
3:20 AM 68.0 °F - 64.4 °F 88% 30.09 in - East 4.6 mph - N/A   Clear
3:50 AM 68.0 °F - 64.4 °F 88% 30.12 in - East 4.6 mph - N/A   Clear
4:20 AM 68.0 °F - 64.4 °F 88% 30.12 in - ENE 4.6 mph - N/A   Clear
4:50 AM 68.0 °F - 64.4 °F 88% 30.12 in - ENE 5.8 mph - N/A   Clear
5:20 AM 69.8 °F - 64.4 °F 83% 30.09 in - East 3.5 mph - N/A   Clear
5:50 AM 69.8 °F - 64.4 °F 83% 30.09 in - ESE 4.6 mph - N/A   Clear
6:20 AM 69.8 °F - 64.4 °F 83% 30.12 in - Variable 2.3 mph - N/A   Clear
6:50 AM 68.0 °F - 64.4 °F 88% 30.12 in - Variable 1.2 mph - N/A   Clear
7:20 AM 68.0 °F - 64.4 °F 88% 30.12 in - Variable 2.3 mph - N/A   Clear
7:50 AM 69.8 °F - 66.2 °F 88% 30.12 in - Variable 2.3 mph - N/A   Clear
8:20 AM 69.8 °F - 66.2 °F 88% 30.12 in - Calm Calm - N/A   Clear
8:50 AM 71.6 °F - 66.2 °F 83% 30.12 in 6.2 mi Variable 1.2 mph - N/A   Partly Cloudy
9:20 AM 71.6 °F - 66.2 °F 83% 30.15 in 6.2 mi Variable 2.3 mph - N/A   Partly Cloudy
9:50 AM 75.2 °F - 66.2 °F 73% 30.15 in 6.2 mi Variable 3.5 mph - N/A   Partly Cloudy
10:20 AM 78.8 °F - 66.2 °F 65% 30.15 in 6.2 mi East 4.6 mph - N/A   Scattered Clouds
10:50 AM 77.0 °F - 66.2 °F 69% 30.15 in 6.2 mi SE 4.6 mph - N/A Rain Light Rain
11:20 AM 80.6 °F 82.7 °F 66.2 °F 61% 30.15 in 6.2 mi East 4.6 mph - N/A   Partly Cloudy
11:50 AM 78.8 °F - 66.2 °F 65% 30.12 in 6.2 mi East 8.1 mph - N/A   Partly Cloudy
12:20 PM 80.6 °F 82.7 °F 66.2 °F 61% 30.12 in 6.2 mi ESE 4.6 mph - N/A   Partly Cloudy
12:50 PM 82.4 °F 84.6 °F 66.2 °F 58% 30.12 in 6.2 mi Variable 2.3 mph - N/A   Partly Cloudy
1:20 PM 82.4 °F 84.6 °F 66.2 °F 58% 30.12 in 6.2 mi SW 5.8 mph - N/A   Partly Cloudy
1:50 PM 82.4 °F 84.6 °F 66.2 °F 58% 30.15 in 6.2 mi South 4.6 mph - N/A   Mostly Cloudy
2:20 PM 84.2 °F 86.6 °F 66.2 °F 55% 30.12 in 6.2 mi Variable 3.5 mph - N/A   Mostly Cloudy
2:50 PM 84.2 °F 85.6 °F 64.4 °F 51% 30.12 in 6.2 mi SSW 6.9 mph - N/A   Scattered Clouds
3:20 PM 84.2 °F 86.6 °F 66.2 °F 55% 30.12 in 6.2 mi WSW 3.5 mph - N/A   Mostly Cloudy
3:50 PM 84.2 °F 87.3 °F 68.0 °F 58% 30.09 in 6.2 mi WNW 4.6 mph - N/A   Mostly Cloudy
4:20 PM 82.4 °F 85.4 °F 68.0 °F 62% 30.12 in 6.2 mi West 5.8 mph - N/A Rain Light Rain
4:50 PM 82.4 °F 85.4 °F 68.0 °F 62% 30.09 in 6.2 mi SSW 3.5 mph - N/A   Mostly Cloudy
5:20 PM 82.4 °F 85.4 °F 68.0 °F 62% 30.09 in 6.2 mi SSW 3.5 mph - N/A   Mostly Cloudy
5:50 PM 82.4 °F 85.4 °F 68.0 °F 62% 30.09 in 6.2 mi WNW 4.6 mph - N/A   Mostly Cloudy
6:20 PM 80.6 °F 82.7 °F 66.2 °F 61% 30.09 in 6.2 mi West 6.9 mph - N/A   Mostly Cloudy
6:50 PM 80.6 °F 82.7 °F 66.2 °F 61% 30.09 in 6.2 mi West 5.8 mph - N/A   Mostly Cloudy
7:20 PM 80.6 °F 82.7 °F 66.2 °F 61% 30.09 in 6.2 mi West 4.6 mph - N/A   Mostly Cloudy
7:50 PM 78.8 °F - 66.2 °F 65% 30.09 in 6.2 mi West 3.5 mph - N/A   Scattered Clouds
8:20 PM 77.0 °F - 66.2 °F 69% 30.09 in 6.2 mi Variable 2.3 mph - N/A   Partly Cloudy
8:50 PM 77.0 °F - 68.0 °F 74% 30.09 in 6.2 mi Calm Calm - N/A   Partly Cloudy
9:20 PM 75.2 °F - 66.2 °F 73% 30.09 in 6.2 mi SE 3.5 mph - N/A   Partly Cloudy
9:50 PM 75.2 °F - 68.0 °F 78% 30.09 in 6.2 mi Variable 2.3 mph - N/A   Partly Cloudy
10:20 PM 75.2 °F - 68.0 °F 78% 30.09 in 6.2 mi SE 3.5 mph - N/A   Partly Cloudy
10:50 PM 75.2 °F - 68.0 °F 78% 30.09 in 6.2 mi SSE 3.5 mph - N/A   Partly Cloudy
11:20 PM 75.2 °F - 69.8 °F 83% 30.09 in 6.2 mi ESE 3.5 mph - N/A   Partly Cloudy
11:50 PM 75.2 °F - 69.8 °F 83% 30.06 in 6.2 mi ENE 4.6 mph - N/A   Scattered Clouds